EW5962 Weather Reports


time (UTC)temp
C
wind
direction
speed
KPH
gust
KPH
rain 1hr
cm
rain 24hr
cm
rain mn
cm
humidity
%
barometer
mb
20260505070507 13 160 0.0 0.0 0.00 0.00 0.00 72 1013.3
20260505070010 13 191 0.0 0.0 0.00 0.00 0.00 71 1013.3
20260505065604 13 191 0.0 0.0 0.00 0.00 0.00 70 1013.4
20260505065004 13 169 0.0 1.6 0.00 0.00 0.00 71 1013.3
20260505064525 13 190 0.0 1.6 0.00 0.00 0.00 70 1013.3
20260505064103 13 179 0.0 0.0 0.00 0.00 0.00 69 1013.3
20260505063503 13 181 0.0 3.2 0.00 0.00 0.00 69 1013.3
20260505063010 13 193 0.0 3.2 0.00 0.00 0.00 68 1013.3
20260505062604 13 193 0.0 0.0 0.00 0.00 0.00 68 1013.3
20260505062003 13 193 0.0 1.6 0.00 0.00 0.00 67 1013.3
20260505061524 13 193 0.0 0.0 0.00 0.00 0.00 66 1013.4
20260505061104 13 193 0.0 0.0 0.00 0.00 0.00 65 1013.4
20260505060503 14 193 0.0 1.6 0.00 0.00 0.00 65 1013.4
20260505060010 14 193 0.0 1.6 0.00 0.00 0.00 64 1013.4
20260505055604 14 193 0.0 1.6 0.00 0.00 0.00 64 1013.4
20260505055006 14 188 0.0 1.6 0.00 0.00 0.00 63 1013.4
20260505054509 14 175 0.0 1.6 0.00 0.00 0.00 63 1013.3
20260505054103 14 175 0.0 1.6 0.00 0.00 0.00 62 1013.2
20260505053507 14 191 0.0 0.0 0.00 0.00 0.00 61 1013.3
20260505053009 14 228 0.0 0.0 0.00 0.00 0.00 61 1013.3
20260505052604 14 229 0.0 0.0 0.00 0.00 0.00 62 1013.4
20260505052002 14 191 0.0 0.0 0.00 0.00 0.00 63 1013.5
20260505051510 14 191 0.0 1.6 0.00 0.00 0.00 61 1013.5
20260505051105 14 191 0.0 1.6 0.00 0.00 0.00 61 1013.6
20260505050503 14 191 0.0 0.0 0.00 0.00 0.00 61 1013.6
20260505041512 13 235 0.0 0.0 0.00 0.00 0.00 66 1013.5
20260505041103 13 160 0.0 0.0 0.00 0.00 0.00 66 1013.4
20260505040511 13 160 0.0 0.0 0.00 0.00 0.00 67 1013.4
20260505035503 13 160 0.0 0.0 0.00 0.00 0.00 67 1013.4
20260505035010 13 160 0.0 0.0 0.00 0.00 0.00 66 1013.5
20260505034603 13 160 0.0 0.0 0.00 0.00 0.00 64 1013.5
20260505034006 14 160 0.0 0.0 0.00 0.00 0.00 64 1013.5
20260505033510 14 160 0.0 0.0 0.00 0.00 0.00 63 1013.5
20260505033105 14 160 0.0 0.0 0.00 0.00 0.00 62 1013.6
20260505032504 14 160 0.0 0.0 0.00 0.00 0.00 62 1013.6
20260505032011 14 160 0.0 0.0 0.00 0.00 0.00 61 1013.6
20260505031611 14 160 0.0 0.0 0.00 0.00 0.00 61 1013.7
20260505031003 14 198 0.0 0.0 0.00 0.00 0.00 61 1013.6
20260505030510 15 198 0.0 0.0 0.00 0.00 0.00 60 1013.6
20260505025504 15 198 0.0 0.0 0.00 0.00 0.00 59 1013.6
20260505025009 15 198 0.0 0.0 0.00 0.00 0.00 58 1013.6
20260505024603 15 198 0.0 0.0 0.00 0.00 0.00 60 1013.6
20260505024009 15 198 0.0 0.0 0.00 0.00 0.00 59 1013.6
20260505023603 15 198 0.0 0.0 0.00 0.00 0.00 59 1013.6
20260505023006 15 198 0.0 0.0 0.00 0.00 0.00 59 1013.5
20260505022509 15 198 0.0 0.0 0.00 0.00 0.00 59 1013.5
20260505022104 15 198 0.0 0.0 0.00 0.00 0.00 58 1013.4
20260505021504 15 198 0.0 0.0 0.00 0.00 0.00 57 1013.4
20260505021012 15 198 0.0 0.0 0.00 0.00 0.00 57 1013.4
20260505020603 15 198 0.0 0.0 0.00 0.00 0.00 57 1013.4
20260505020003 15 198 0.0 0.0 0.00 0.00 0.00 57 1013.4
20260505015513 16 198 0.0 0.0 0.00 0.00 0.00 59 1013.4
20260505015103 16 198 0.0 0.0 0.00 0.00 0.00 58 1013.4
20260505014502 16 198 0.0 0.0 0.00 0.00 0.00 59 1013.4
20260505014015 16 198 0.0 0.0 0.00 0.00 0.00 59 1013.3
20260505013603 16 198 0.0 0.0 0.00 0.00 0.00 59 1013.3
20260505013003 16 198 0.0 0.0 0.00 0.00 0.00 58 1013.1
20260505012509 16 198 0.0 0.0 0.00 0.00 0.00 57 1013.1
20260505012104 16 198 0.0 0.0 0.00 0.00 0.00 58 1013.1
20260505011503 17 198 0.0 0.0 0.00 0.00 0.00 56 1013.0
20260505011009 17 198 0.0 0.0 0.00 0.00 0.00 55 1012.9
20260505010604 17 198 0.0 0.0 0.00 0.00 0.00 54 1012.8
20260505010003 17 198 0.0 0.0 0.00 0.00 0.00 52 1012.7
20260505005509 17 198 0.0 0.0 0.00 0.00 0.00 52 1012.7
20260505005104 18 198 0.0 0.0 0.00 0.00 0.00 52 1012.6
20260505004502 18 198 0.0 0.0 0.00 0.00 0.00 50 1012.6
20260505004009 18 198 0.0 0.0 0.00 0.00 0.00 49 1012.6
20260505003603 18 198 0.0 0.0 0.00 0.00 0.00 49 1012.5
20260505003002 19 198 0.0 0.0 0.00 0.00 0.00 49 1012.5
20260505002514 19 198 0.0 0.0 0.00 0.00 0.00 47 1012.5
20260505002104 20 198 0.0 0.0 0.00 0.00 0.00 47 1012.5
20260505001503 20 198 0.0 0.0 0.00 0.00 0.00 47 1012.4
20260505001017 20 198 0.0 0.0 0.00 0.00 0.00 46 1012.3
20260505000603 20 198 0.0 0.0 0.00 0.00 0.00 46 1012.4
20260505000007 20 198 0.0 0.0 0.00 0.00 0.00 44 1012.3
20260504235510 21 198 0.0 0.0 0.00 0.00 0.00 45 1012.2
20260504235104 21 198 0.0 0.0 0.00 0.00 0.00 45 1012.1
20260504234505 21 198 0.0 0.0 0.00 0.00 0.00 43 1012.1
20260504234009 21 198 0.0 0.0 0.00 0.00 0.00 43 1012.0
20260504233603 21 198 0.0 4.8 0.00 0.00 0.00 41 1012.0
20260504233004 22 184 0.0 4.8 0.00 0.00 0.00 42 1012.0
20260504232510 22 191 0.0 0.0 0.00 0.00 0.00 41 1011.9
20260504232107 22 181 0.0 3.2 0.00 0.00 0.00 40 1011.9
20260504231503 22 181 0.0 3.2 0.00 0.00 0.00 38 1011.9
20260504231009 22 181 0.0 3.2 0.00 0.00 0.00 40 1011.9
20260504230604 22 183 0.0 3.2 0.00 0.00 0.00 37 1012.0
20260504230003 23 192 0.0 4.8 0.00 0.00 0.00 40 1012.0
20260504225509 23 220 0.0 4.8 0.00 0.00 0.00 39 1011.9
20260504225103 23 174 0.0 0.0 0.00 0.00 0.00 37 1011.9
20260504224503 23 169 0.0 6.4 0.00 0.00 0.00 38 1012.0
20260504224014 23 168 0.0 6.4 0.00 0.00 0.00 35 1012.0
20260504223604 23 178 0.0 9.7 0.00 0.00 0.00 34 1012.0
20260504223003 23 214 0.0 9.7 0.00 0.00 0.00 37 1012.0
20260504222510 23 175 0.0 1.6 0.00 0.00 0.00 35 1012.1
20260504222103 23 186 0.0 1.6 0.00 0.00 0.00 35 1012.0
20260504221504 23 165 0.0 6.4 0.00 0.00 0.00 34 1012.0
20260504221010 24 173 0.0 6.4 0.00 0.00 0.00 35 1012.0
20260504220603 24 217 0.0 0.0 0.00 0.00 0.00 37 1012.0
20260504220003 24 201 0.0 6.4 0.00 0.00 0.00 35 1012.0
20260504215510 24 203 0.0 4.8 0.00 0.00 0.00 33 1012.0
20260504215102 24 176 0.0 1.6 0.00 0.00 0.00 33 1012.0
20260504214503 24 150 0.0 4.8 0.00 0.00 0.00 33 1012.0
20260504214011 24 231 0.0 4.8 0.00 0.00 0.00 33 1012.0
20260504213604 24 231 0.0 6.4 0.00 0.00 0.00 32 1012.0
20260504213003 25 163 0.0 6.4 0.00 0.00 0.00 33 1012.0
20260504212509 25 180 0.0 6.4 0.00 0.00 0.00 34 1012.0
20260504212104 25 179 0.0 6.4 0.00 0.00 0.00 33 1012.0
20260504211503 25 205 0.0 3.2 0.00 0.00 0.00 31 1012.1
20260504211009 25 209 0.0 3.2 0.00 0.00 0.00 31 1012.1
20260504210606 26 188 0.0 1.6 0.00 0.00 0.00 31 1012.1
20260504210004 26 200 0.0 0.0 0.00 0.00 0.00 30 1012.0
20260504205509 26 211 0.0 3.2 0.00 0.00 0.00 31 1012.2
20260504205104 26 195 0.0 6.4 0.00 0.00 0.00 32 1012.3
20260504204504 26 177 0.0 8.0 0.00 0.00 0.00 31 1012.3
20260504204009 27 207 0.0 8.0 0.00 0.00 0.00 31 1012.3
20260504203605 27 172 0.0 0.0 0.00 0.00 0.00 32 1012.4
20260504203006 27 194 0.0 0.0 0.00 0.00 0.00 31 1012.4
20260504202513 27 184 0.0 1.6 0.00 0.00 0.00 31 1012.5
20260504202104 27 232 0.0 9.7 0.00 0.00 0.00 32 1012.5
20260504201505 26 146 0.0 11.3 0.00 0.00 0.00 32 1012.5
20260504201009 26 195 0.0 11.3 0.00 0.00 0.00 31 1012.7
20260504200603 27 286 1.6 9.7 0.00 0.00 0.00 31 1012.7
20260504200004 27 234 0.0 8.0 0.00 0.00 0.00 32 1012.8
20260504195509 27 196 0.0 14.5 0.00 0.00 0.00 33 1012.7
20260504195104 27 26 1.6 14.5 0.00 0.00 0.00 33 1012.8
20260504194504 27 216 0.0 14.5 0.00 0.00 0.00 33 1012.9
20260504194009 27 159 1.6 14.5 0.00 0.00 0.00 32 1012.9
20260504193603 27 200 0.0 8.0 0.00 0.00 0.00 33 1012.9
20260504193003 27 169 0.0 8.0 0.00 0.00 0.00 35 1013.0
20260504192509 27 181 0.0 8.0 0.00 0.00 0.00 32 1013.1
20260504192103 27 180 0.0 0.0 0.00 0.00 0.00 35 1013.2
20260504191503 26 15 0.0 0.0 0.00 0.00 0.00 34 1013.3
20260504191009 26 198 0.0 1.6 0.00 0.00 0.00 36 1013.3
20260504190605 26 205 0.0 8.0 0.00 0.00 0.00 34 1013.3
20260504190004 26 191 1.6 8.0 0.00 0.00 0.00 33 1013.5
20260504185509 26 112 0.0 8.0 0.00 0.00 0.00 36 1013.5
20260504185104 26 181 0.0 8.0 0.00 0.00 0.00 34 1013.6
20260504184504 25 171 0.0 6.4 0.00 0.00 0.00 34 1013.6
20260504184009 25 147 0.0 8.0 0.00 0.00 0.00 35 1013.6
20260504183604 25 169 0.0 8.0 0.00 0.00 0.00 35 1013.7
20260504183004 25 203 0.0 0.0 0.00 0.00 0.00 33 1013.7
20260504182509 25 105 0.0 0.0 0.00 0.00 0.00 36 1013.8
20260504182103 25 20 0.0 0.0 0.00 0.00 0.00 34 1013.8
20260504181503 25 219 0.0 3.2 0.00 0.00 0.00 34 1013.8
20260504181010 25 179 0.0 9.7 0.00 0.00 0.00 36 1013.9
20260504180604 25 183 0.0 9.7 0.00 0.00 0.00 36 1014.0
20260504180007 25 181 0.0 8.0 0.00 0.00 0.00 34 1014.1
20260504175512 25 167 0.0 8.0 0.00 0.00 0.00 36 1014.0
20260504175103 25 160 0.0 1.6 0.00 0.00 0.00 35 1014.0
20260504174504 25 179 0.0 8.0 0.00 0.00 0.00 36 1014.1
20260504174009 25 169 0.0 4.8 0.00 0.00 0.00 35 1014.2
20260504173606 25 157 0.0 4.8 0.00 0.00 0.00 36 1014.3
20260504173003 25 124 0.0 6.4 0.00 0.00 0.00 34 1014.3
20260504172508 25 166 0.0 6.4 0.00 0.00 0.00 35 1014.4
20260504172103 25 254 0.0 0.0 0.00 0.00 0.00 35 1014.4
20260504171503 24 143 0.0 1.6 0.00 0.00 0.00 37 1014.5
20260504171009 24 174 0.0 9.7 0.00 0.00 0.00 37 1014.5
20260504170602 23 150 0.0 9.7 0.00 0.00 0.00 37 1014.7
20260504151010 20 184 0.0 0.0 0.00 0.00 0.00 43 1016.2
20260504150604 20 179 0.0 6.4 0.00 0.00 0.00 44 1016.2
20260504141008 15 206 0.0 1.6 0.00 0.00 0.00 65 1016.2
20260504140604 15 206 0.0 1.6 0.00 0.00 0.00 65 1016.2
20260504130603 9 181 0.0 1.6 0.00 0.00 0.00 87 1016.2
20260504110605 3 169 0.0 0.0 0.00 0.00 0.00 93 1016.3
20260504100603 3 169 0.0 0.0 0.00 0.00 0.00 92 1016.2
20260504081503 4 169 0.0 0.0 0.00 0.00 0.00 90 1016.1
20260504081010 5 169 0.0 0.0 0.00 0.00 0.00 90 1016.1
20260504080603 5 169 0.0 0.0 0.00 0.00 0.00 90 1016.0